Terug naar catalogus

STARLINK-33553

ActiefCommunicatieVLEO
NORAD 62108·PAYLOAD·🇺🇸 United States

Gelanceerd Nov 25, 2024 vanaf Cape Canaveral Space Force Station

Loading…

Volgende Passages (komende 24 uur)

TLE

VersSource: CelesTrak SupGP

Epoch: Sep 15, 2026, 03:04 UTC

1 62108C 24220W   26258.12826389 -.00004228  00000+0 -15309-3 0  2585
2 62108  43.0019 215.6825 0000966 260.5182  94.8824 15.27593397    17

Volg STARLINK-33553 in realtime met AllMySat

Download on the App Store